National Weather Service United States Department of Commerce

Latest Hourly Weather Roundup

TOPSWRTT 000
TTAA00 KICT 190912

Wichita AWIPS Roundup
National Weather Service Wichita KS
300 AM CST TUE NOV 19 2019

....Central Kansas....
  
CITY           SKY/WX    TMP DP  RH WIND       PRES   REMARKS
RUSSELL        CLEAR     34  25  69 SW5       29.91R WCI  30          
SALINA         CLEAR     39  27  62 W8        29.90R WCI  33          
GREAT BEND     CLEAR     37  26  64 SW5       29.94R WCI  33          
ELLSWORTH      CLEAR     34  27  75 W5        29.92R WCI  30          
LYONS          FAIR      36  27  69 W6        29.92R WCI  31          
MCPHERSON      CLEAR     36  27  69 NW7       29.91R WCI  30          
HAYS           CLEAR     32  26  78 SW8       29.94R WCI  25          

....South Central Kansas....
  
CITY           SKY/WX    TMP DP  RH WIND       PRES   REMARKS
HUTCHINSON     CLEAR     36  28  73 W5        29.91R WCI  32          
NEWTON         CLEAR     41  28  60 NW5       29.90S WCI  38          
KINGMAN        CLEAR     37  30  75 CALM      29.92S                  
WICHITA (ICT)  CLEAR     42  29  59 NW6       29.91R WCI  38          
JABARA ARPT    CLEAR     43  29  57 N7        29.90R WCI  39          
BEECH ARPT     FAIR      46  29  52 N6        29.90R                  
MCCONNELL AFB  CLEAR     48  28  45 W6        29.91R                  
BENTON         FAIR      45  29  55 N7        29.90R                  
EL DORADO      FAIR      43  30  61 N3        29.89S                  
AUGUSTA        FAIR      45  30  57 NW6       29.90S                  
HARPER         NOT AVBL                                               
WELLINGTON     CLEAR     36  32  87 W5        29.91S WCI  32          
WINFIELD       CLEAR     36  31  82 CALM      29.91R                  
 
....Southeast Kansas....
  
CITY           SKY/WX    TMP DP  RH WIND       PRES   REMARKS
EUREKA         CLEAR     39  31  72 W10       29.89S WCI  32          
IOLA           FAIR      44  33  65 W7        29.88S WCI  40          
CHANUTE        CLEAR     45  32  60 NW6       29.87S                  
PARSONS        CLEAR     40  33  76 NW6       29.89R WCI  36          
COFFEYVILLE    CLEAR     45  33  63 NW3       29.88R                  
INDEPENDENCE   CLEAR     45  34  66 NW10      29.89S WCI  40          
FORT SCOTT     CLEAR     46  36  66 W3        29.84F                  
PITTSBURG      CLEAR     48  37  65 NW5       29.85S                  

....Western Kansas....
  
CITY           SKY/WX    TMP DP  RH WIND       PRES   REMARKS
GOODLAND       MOCLDY    41  28  60 SW8       29.92S WCI  36          
HILL CITY      CLEAR     34  26  72 W5        29.93R WCI  30          
LIBERAL        CLEAR     35  28  75 W7        29.98R WCI  29          
GARDEN CITY    CLEAR     34  27  75 W5        29.94F WCI  30          
DODGE CITY     CLEAR     40  27  59 SW3       29.93F                  
PRATT          CLEAR     37  27  67 NW6       29.93F WCI  32          
MEDICINE LODGE   N/A     40  30  67 NW5       29.92S WCI  37          

....Northeast Kansas....
  
CITY           SKY/WX    TMP DP  RH WIND       PRES   REMARKS
CONCORDIA      CLEAR     43  30  60 W7        29.88F WCI  39          
TOPEKA         CLEAR     45  34  65 W5        29.85R                  
MANHATTAN      CLEAR     37  29  72 SW3       29.88R                  
LAWRENCE       CLEAR     38  32  79 CALM      29.85R                  
OLATHE         CLEAR     47  41  80 NW8       29.83R                  
EMPORIA        CLEAR     42  32  67 NW5       29.86F WCI  39          

....Oklahoma....
  
CITY           SKY/WX    TMP DP  RH WIND       PRES   REMARKS
GAGE           CLEAR     34  29  82 SW5       29.94F WCI  30          
PONCA CITY     CLEAR     38  33  82 CALM      29.91R                  
BARTLESVILLE   CLEAR     44  35  70 CALM      29.91S                  
TULSA          PTCLDY    50  38  63 NW5       29.89S                  
OKLAHOMA CITY  PTCLDY    42  37  82 CALM      29.91S                  

Note: "fair" indicates few or no clouds below 12,000 feet with no
significant weather and/or obstructions to visibility.